Airfield :
LOGIN :

Register | Disclaimer

   EN    FR    IT 

 










Legend :    VFR   Marginal VFR   IFR   Intensive IFR   Very Intensive IFR
Visi :
Ceiling :
>= 8 km
>= 3000ft
5 to 8 km
1000 to 3000 ft
1500m to 5 km
500 to 1000 ft
800 to 1500m
200 to 500 ft
< 800m
< 200 ft
Symbols :   Thunderstorms  Fog  Heavy snow  Heavy precipitations  Wind > 20 kt
SIGMETs :     Misc.  Thunderstorms  Icing  Turbulence  Mountain Waves  Volcanic Ashes






- Airport Elevation : 68 ft
- IATA code : AGH


ESTA - Ängelholm-Helsingborg

CURRENT METAR :
  • 141120Z AUTO 29013KT 9999 FEW057/// 08/M03 Q1027

EXPIRED METARs :
  • 141050Z 33010KT 310V010 CAVOK 08/M06 Q1027
  • 141020Z 34009KT 310V010 CAVOK 08/M07 Q1027
  • 140950Z AUTO 35009KT 310V020 9999 NCD 08/M06 Q1027
  • 140920Z AUTO 02006KT 9999 NCD 07/M07 Q1027

Expired Forecast.



MET'MAP, your aeronautical weather chart ! - Copyright ORBIFLY December 2007 - Disclaimer

ORBIFLY MET'MAP TEAM :

Programming & Development : Alexandra Zaïnal
Concept & original design : Baudouin d'Aumeries
Assistance for programming : Marc-Olivier Méhu
Technical & hardware support : Manuel Goepfert

Contact : metmap@orbifly.com




SOURCES & CREDITS :

   NOAA